Date String (YYYY-MM-DD hh:mm:ss) UTC,Instrument flags,Ambient pressure (hPa),Sample flow (lpm),Bypass flow (lpm),Sample temperature (°C),Ambient temperature (°C),ASC tube jacket temperature (°C),LED temperature (°C),Box temperature (°C),Sample RH (%),Span deviation,Mass concentration (μg/m³),Mass concentration (μg/m³),Mass concentration (μg/m³)
DateTimeUTC,F1_M11,P_M11,Q1_M11,Q2_M11,T1_M11,T2_M11,T3_M11,T4_M11,T5_M11,U1_M11,ZSPAN_M11,X0_M11,X2_M11,X1_M11
2022-11-22 08:00:00,,0828.0,4.99,0.00,22.7,21.2,00.0,31.7,24.5,09.3,0000.0,0011.89,0007.12,0006.46
2022-11-22 08:01:00,,0828.0,5.00,0.00,22.7,21.3,00.0,31.7,24.5,09.3,0000.0,0012.10,0007.23,0006.53
2022-11-22 08:02:00,,0828.1,5.01,0.00,22.7,21.3,00.0,31.7,24.5,09.4,0000.0,0012.26,0007.32,0006.61
2022-11-22 08:03:00,,0828.1,5.01,0.00,22.7,21.3,00.0,31.7,24.5,09.4,0000.0,0012.56,0007.38,0006.72
2022-11-22 08:04:00,,0828.1,4.99,0.00,22.7,21.3,00.0,31.7,24.4,09.4,0000.0,0013.20,0007.52,0006.81
2022-11-22 08:05:00,,0828.1,5.00,0.00,22.7,21.3,00.0,31.6,24.5,09.5,0000.0,0013.82,0007.60,0006.87
2022-11-22 08:06:00,,0828.0,4.99,0.00,22.7,21.3,00.0,31.6,24.5,09.5,0000.0,0013.71,0007.60,0006.87
2022-11-22 08:07:00,,0828.0,5.01,0.00,22.7,21.3,00.0,31.6,24.5,09.4,0000.0,0013.62,0007.55,0006.85
2022-11-22 08:08:00,,0828.1,5.01,0.00,22.7,21.3,00.0,31.6,24.5,09.4,0000.0,0013.83,0007.54,0006.82
2022-11-22 08:09:00,,0828.0,5.01,0.00,22.7,21.3,00.0,31.6,24.6,09.2,0000.0,0013.78,0007.48,0006.76
2022-11-22 08:10:00,,0828.0,5.00,0.00,22.7,21.3,00.0,31.6,24.6,09.1,0000.0,0013.55,0007.39,0006.68
2022-11-22 08:11:00,,0828.2,5.00,0.00,22.7,21.3,00.0,31.6,24.6,09.2,0000.0,0013.49,0007.33,0006.62
2022-11-22 08:12:00,,0828.2,5.00,0.00,22.7,21.3,00.0,31.6,24.6,09.3,0000.0,0014.43,0007.24,0006.56
2022-11-22 08:13:00,,0828.1,5.00,0.00,22.7,21.3,00.0,31.6,24.6,09.4,0000.0,0014.59,0007.14,0006.48
2022-11-22 08:14:00,,0828.1,5.00,0.00,22.7,21.3,00.0,31.6,24.6,09.2,0000.0,0014.86,0007.06,0006.42
2022-11-22 08:15:00,,0828.1,5.00,0.00,22.7,21.3,00.0,31.6,24.6,09.2,0000.0,0014.10,0006.93,0006.31
2022-11-22 08:16:00,,0828.1,5.00,0.00,22.7,21.3,00.0,31.6,24.6,09.2,0000.0,0013.69,0006.78,0006.21
2022-11-22 08:17:00,,0828.1,5.00,0.00,22.7,21.3,00.0,31.6,24.5,09.2,0000.0,0013.50,0006.67,0006.11
2022-11-22 08:18:00,,0828.1,5.00,0.00,22.7,21.3,00.0,31.6,24.5,09.2,0000.0,0013.49,0006.60,0006.02
2022-11-22 08:19:00,,0828.1,5.00,0.00,22.7,21.3,00.0,31.6,24.6,09.3,0000.0,0013.27,0006.51,0005.94
2022-11-22 08:20:00,,0828.1,5.00,0.00,22.7,21.3,00.0,31.6,24.6,09.3,0000.0,0013.31,0006.42,0005.88
2022-11-22 08:21:00,,0828.2,5.00,0.00,22.7,21.3,00.0,31.6,24.5,09.3,0000.0,0013.64,0006.36,0005.85
2022-11-22 08:22:00,,0828.1,5.00,0.00,22.7,21.3,00.0,31.6,24.5,09.3,0000.0,0013.54,0006.29,0005.82
2022-11-22 08:23:00,,0828.1,4.99,0.00,22.7,21.3,00.0,31.6,24.4,09.3,0000.0,0012.02,0006.22,0005.77
2022-11-22 08:24:00,,0828.1,5.00,0.00,22.7,21.3,00.0,31.6,24.5,09.3,0000.0,0012.07,0006.16,0005.73
2022-11-22 08:25:00,,0828.3,5.00,0.00,22.7,21.3,00.0,31.6,24.5,09.3,0000.0,0012.49,0006.12,0005.68
2022-11-22 08:26:00,,0828.1,5.01,0.00,22.7,21.3,00.0,31.6,24.6,09.3,0000.0,0012.65,0006.11,0005.68
2022-11-22 08:27:00,,0828.1,5.00,0.00,22.7,21.3,00.0,31.6,24.6,09.3,0000.0,0012.28,0006.12,0005.68
2022-11-22 08:28:00,,0828.1,5.00,0.00,22.7,21.3,00.0,31.6,24.5,09.3,0000.0,0012.21,0006.12,0005.67
2022-11-22 08:29:00,,0828.1,5.00,0.00,22.7,21.3,00.0,31.6,24.5,09.3,0000.0,0012.27,0006.14,0005.67
2022-11-22 08:30:00,,0828.1,5.00,0.00,22.7,21.3,00.0,31.6,24.5,09.3,0000.0,0012.32,0006.15,0005.66
2022-11-22 08:31:00,,0828.1,4.99,0.00,22.7,21.3,00.0,31.6,24.6,09.3,0000.0,0012.29,0006.19,0005.65
2022-11-22 08:32:00,,0828.1,4.99,0.00,22.7,21.3,00.0,31.6,24.4,09.3,0000.0,0012.42,0006.26,0005.66
2022-11-22 08:33:00,,0828.1,5.01,0.00,22.6,21.2,00.0,31.6,24.4,09.3,0000.0,0012.48,0006.28,0005.65
2022-11-22 08:34:00,,0828.1,5.01,0.00,22.6,21.2,00.0,31.6,24.4,09.3,0000.0,0012.74,0006.33,0005.65
2022-11-22 08:35:00,,0828.1,5.00,0.00,22.6,21.2,00.0,31.6,24.4,09.3,0000.0,0012.69,0006.36,0005.66
2022-11-22 08:36:00,,0828.1,5.01,0.00,22.6,21.2,00.0,31.6,24.4,09.3,0000.0,0011.97,0006.37,0005.65
2022-11-22 08:37:00,,0828.1,5.01,0.00,22.6,21.2,00.0,31.6,24.4,09.4,0000.0,0011.56,0006.36,0005.64
2022-11-22 08:38:00,,0828.2,5.00,0.00,22.6,21.2,00.0,31.6,24.4,09.4,0000.0,0011.55,0006.33,0005.63
2022-11-22 08:39:00,,0828.1,5.00,0.00,22.6,21.2,00.0,31.6,24.4,09.4,0000.0,0011.86,0006.34,0005.64
2022-11-22 08:40:00,,0828.2,4.99,0.00,22.6,21.2,00.0,31.6,24.4,09.4,0000.0,0011.85,0006.31,0005.65
2022-11-22 08:41:00,,0828.2,5.00,0.00,22.6,21.2,00.0,31.6,24.4,09.4,0000.0,0011.90,0006.28,0005.66
2022-11-22 08:42:00,,0828.1,5.00,0.00,22.6,21.2,00.0,31.6,24.4,09.4,0000.0,0011.84,0006.27,0005.67
2022-11-22 08:43:00,,0828.1,5.00,0.00,22.6,21.2,00.0,31.6,24.5,09.4,0000.0,0011.62,0006.26,0005.69
2022-11-22 08:44:00,,0828.2,5.00,0.00,22.6,21.2,00.0,31.6,24.5,09.4,0000.0,0012.21,0006.27,0005.71
2022-11-22 08:45:00,,0828.3,4.99,0.00,22.6,21.2,00.0,31.6,24.5,09.4,0000.0,0012.20,0006.32,0005.75
2022-11-22 08:46:00,,0828.3,5.00,0.00,22.6,21.2,00.0,31.6,24.5,09.4,0000.0,0012.43,0006.31,0005.76
2022-11-22 08:47:00,,0828.3,5.01,0.00,22.6,21.2,00.0,31.6,24.5,09.4,0000.0,0012.63,0006.34,0005.78
2022-11-22 08:48:00,,0828.3,5.00,0.00,22.6,21.2,00.0,31.6,24.5,09.4,0002.8,0012.61,0006.36,0005.81
2022-11-22 08:49:00,,0828.3,5.00,0.00,22.6,21.2,00.0,31.6,24.4,09.4,0002.4,0012.75,0006.38,0005.83
2022-11-22 08:50:00,,0828.3,5.00,0.00,22.6,21.2,00.0,31.6,24.5,09.5,0004.5,0012.48,0006.41,0005.85
2022-11-22 08:51:00,,0828.3,5.00,0.00,22.6,21.2,00.0,31.6,24.5,09.5,0003.9,0012.15,0006.39,0005.87
2022-11-22 08:52:00,,0828.4,5.00,0.00,22.6,21.2,00.0,31.6,24.5,09.5,0000.0,0012.28,0006.42,0005.88
2022-11-22 08:53:00,,0828.3,4.99,0.00,22.6,21.2,00.0,31.5,24.5,09.4,0000.0,0013.24,0006.45,0005.88
2022-11-22 08:54:00,,0828.4,4.99,0.00,22.6,21.2,00.0,31.5,24.5,09.4,0000.0,0013.40,0006.42,0005.86
2022-11-22 08:55:00,,0828.4,4.99,0.00,22.6,21.2,00.0,31.5,24.4,09.4,0001.0,0012.48,0006.38,0005.83
2022-11-22 08:56:00,,0828.5,5.02,0.00,22.6,21.2,00.0,31.5,24.4,09.4,0000.0,0012.51,0006.38,0005.80
2022-11-22 08:57:00,,0828.4,5.00,0.00,22.6,21.2,00.0,31.5,24.4,09.4,0001.0,0012.27,0006.38,0005.80
2022-11-22 08:58:00,,0828.4,4.99,0.00,22.6,21.2,00.0,31.5,24.4,09.4,0000.0,0011.83,0006.35,0005.78
2022-11-22 08:59:00,,0828.5,4.99,0.00,22.6,21.2,00.0,31.5,24.4,09.4,0000.0,0011.80,0006.33,0005.76
